Estación de Codegua
Ultimos registro cada 15 minutos 23
| N° | Estación | Fecha / Hora | Temperatura | Humedad | Lluvia | Velocidad | Dirección | Radiación | Presion |
| 23 | Codegua | 10-05-2026 05:30 | 0,6 | 97,5 | 0 | 0 | 201 | 0,6 | 955,4 |
| 22 | Codegua | 10-05-2026 05:15 | 1,4 | 97,5 | 0 | 0 | 201 | 0,6 | 955,4 |
| 21 | Codegua | 10-05-2026 05:00 | 1,3 | 97,4 | 0 | 0 | 201 | 0,6 | 955,4 |
| 20 | Codegua | 10-05-2026 04:45 | 2,1 | 97,8 | 0 | 0 | 204 | 0,6 | 955,6 |
| 19 | Codegua | 10-05-2026 04:30 | 1,9 | 97,7 | 0 | 0 | 204 | 0,6 | 955,7 |
| 18 | Codegua | 10-05-2026 04:15 | 2 | 97,7 | 0 | 0 | 204 | 0,6 | 955,7 |
| 17 | Codegua | 10-05-2026 04:00 | 1,7 | 97,3 | 0 | 0 | 204 | 0,6 | 955,8 |
| 16 | Codegua | 10-05-2026 03:45 | 1,8 | 97,3 | 0 | 0 | 204 | 0,6 | 955,8 |
| 15 | Codegua | 10-05-2026 03:30 | 2,5 | 97 | 0 | 0 | 206 | 0,6 | 955,9 |
| 14 | Codegua | 10-05-2026 03:15 | 3,3 | 98,3 | 0 | 0 | 227 | 0,6 | 955,8 |
| 13 | Codegua | 10-05-2026 03:00 | 2,2 | 97,6 | 0 | 0 | 229 | 0,6 | 955,9 |
| 12 | Codegua | 10-05-2026 02:45 | 2,3 | 97,5 | 0 | 0 | 229 | 0,6 | 956 |
| 11 | Codegua | 10-05-2026 02:30 | 2,5 | 97,3 | 0 | 0 | 229 | 0,6 | 956,1 |
| 10 | Codegua | 10-05-2026 02:15 | 2,4 | 96,8 | 0 | 0 | 229 | 0,6 | 956,4 |
| 9 | Codegua | 10-05-2026 02:00 | 2,4 | 97 | 0 | 0 | 229 | 0,6 | 956,5 |
| 8 | Codegua | 10-05-2026 01:45 | 2,5 | 96,9 | 0 | 0 | 229 | 0,6 | 956,7 |
| 7 | Codegua | 10-05-2026 01:30 | 2,8 | 96,4 | 0 | 0 | 229 | 0,6 | 956,8 |
| 6 | Codegua | 10-05-2026 01:15 | 3,1 | 96,5 | 0 | 0 | 229 | 0,6 | 956,8 |
| 5 | Codegua | 10-05-2026 01:00 | 3,7 | 97,2 | 0 | 0 | 229 | 0,6 | 956,9 |
| 4 | Codegua | 10-05-2026 00:45 | 3,8 | 96 | 0 | 0 | 229 | 0,6 | 956,8 |
| 3 | Codegua | 10-05-2026 00:30 | 4,2 | 95,3 | 0 | 0 | 229 | 0,6 | 956,8 |
| 2 | Codegua | 10-05-2026 00:15 | 4,5 | 96 | 0 | 0 | 229 | 0,6 | 956,8 |
| 1 | Codegua | 10-05-2026 00:00 | 3,6 | 95,3 | 0 | 0 | 229 | 0,6 | 956,7 |